DW8454 Weather Reports


time (UTC)temp
C
wind
direction
speed
KPH
gust
KPH
rain 1hr
cm
rain 24hr
cm
rain mn
cm
humidity
%
barometer
mb
20260505152905 18 233 19.3 32.2 0.00 0.00 0.00 72 1004.7
20260505151915 18 254 14.5 35.4 0.00 0.00 0.00 72 1004.7
20260505140544 17 227 12.9 35.4 0.00 0.00 0.00 75 1004.3
20260505124354 16 149 0.0 0.0 0.00 0.00 0.00 71 1004.1
20260505123326 16 244 0.0 0.0 0.00 0.00 0.00 71 1004.0
20260505122336 16 226 0.0 0.0 0.00 0.00 0.00 70 1003.9
20260505120303 16 252 0.0 0.0 0.00 0.00 0.00 69 1003.4
20260505115311 16 238 0.0 0.0 0.00 0.00 0.00 68 1003.0
20260505114255 16 224 0.0 0.0 0.00 0.00 0.00 68 1002.6
20260505113221 16 254 0.0 0.0 0.00 0.00 0.00 68 1002.3
20260505112202 16 242 0.0 0.0 0.00 0.00 0.00 67 1002.4
20260505111152 16 192 0.0 0.0 0.00 0.00 0.00 67 1002.4
20260505110136 16 245 0.0 0.0 0.00 0.00 0.00 67 1002.3
20260505101906 17 265 0.0 0.0 0.00 0.00 0.00 66 1002.3
20260505100836 17 211 0.0 0.0 0.00 0.00 0.00 64 1002.1
20260505095857 17 253 0.0 0.0 0.00 0.00 0.00 64 1002.1
20260505094915 18 253 0.0 0.0 0.00 0.00 0.00 63 1001.8
20260505093936 18 242 0.0 0.0 0.00 0.00 0.00 63 1001.4
20260505092926 18 240 0.0 0.0 0.00 0.00 0.00 63 1001.4
20260505091936 18 216 0.0 0.0 0.00 0.00 0.00 62 1001.4
20260505090926 18 250 0.0 0.0 0.00 0.00 0.00 61 1001.2
20260505085944 18 211 0.0 0.0 0.00 0.00 0.00 60 1001.1
20260505083815 19 238 0.0 0.0 0.00 0.00 0.00 59 1001.0
20260505082752 19 244 0.0 0.0 0.00 0.00 0.00 59 1000.8
20260505081734 19 240 0.0 0.0 0.00 0.00 0.00 59 1000.8
20260505080744 19 240 0.0 0.0 0.00 0.00 0.00 58 1000.7
20260505075731 20 255 0.0 0.0 0.00 0.00 0.00 57 1000.9
20260505074711 20 244 0.0 0.0 0.00 0.00 0.00 58 1000.8
20260505073653 20 219 0.0 0.0 0.00 0.00 0.00 58 1000.6
20260505072700 20 165 0.0 0.0 0.00 0.00 0.00 58 1000.7
20260505071645 19 252 0.0 0.0 0.00 0.00 0.00 59 1000.7
20260505070615 19 238 0.0 0.0 0.00 0.00 0.00 60 1000.7
20260505065611 19 266 0.0 0.0 0.00 0.00 0.00 62 1000.8
20260505064542 19 173 0.0 0.0 0.00 0.00 0.00 63 1000.8
20260505063523 20 199 0.0 0.0 0.00 0.00 0.00 59 1000.8
20260505062520 20 165 0.0 0.0 0.00 0.00 0.00 59 1000.8
20260505061514 20 219 0.0 0.0 0.00 0.00 0.00 60 1000.9
20260505060531 20 232 0.0 0.0 0.00 0.00 0.00 60 1000.9
20260505054405 19 196 0.0 0.0 0.00 0.00 0.00 61 1001.2
20260505053359 19 198 0.0 0.0 0.00 0.00 0.00 63 1001.2
20260505051303 18 184 0.0 0.0 0.00 0.00 0.00 64 1001.4
20260505050243 18 217 0.0 0.0 0.00 0.00 0.00 65 1001.4
20260505041155 18 205 0.0 0.0 0.00 0.00 0.00 65 1001.8
20260505040124 18 191 0.0 0.0 0.00 0.00 0.00 65 1001.9
20260505035108 18 183 0.0 0.0 0.00 0.00 0.00 65 1001.9
20260505034043 18 175 0.0 0.0 0.00 0.00 0.00 65 1001.9
20260505031858 18 175 0.0 0.0 0.00 0.00 0.00 63 1002.2
20260505030845 18 201 0.0 0.0 0.00 0.00 0.00 63 1002.3
20260505025900 18 254 0.0 0.0 0.00 0.00 0.00 62 1002.4
20260505024910 18 202 0.0 0.0 0.00 0.00 0.00 61 1002.3
20260505023844 18 207 0.0 0.0 0.00 0.00 0.00 60 1002.3
20260505022904 19 210 0.0 0.0 0.00 0.00 0.00 59 1002.3
20260505021832 19 227 0.0 0.0 0.00 0.00 0.00 58 1002.3
20260505020805 20 206 0.0 0.0 0.00 0.00 0.00 56 1002.2
20260505015802 20 239 0.0 0.0 0.00 0.00 0.00 55 1002.1
20260505014822 20 259 0.0 0.0 0.00 0.00 0.00 54 1002.1
20260505013843 20 246 0.0 0.0 0.00 0.00 0.00 53 1002.3
20260505012901 20 182 0.0 0.0 0.00 0.00 0.00 54 1002.1